STARLINK-11464, 62473

Orbit data source: Space-Track

STARLINK-11464, 62473 is a payload satellite owned by SpaceX/Seattle (US) in LEO that was launched on Tue, 31 Dec 2024 UTC via an FALCON 9 launch vehicle from the Air Force Eastern Test Range (AFETR). Payloads include a variety of satellites, spacecraft, and rockets equipped with specific instruments for various scientific and technological missions. These include communications satellites like Starlink; space stations such as the ISS; scientific satellites like the Hubble; Earth observation satellites from companies like Planet Labs, Umbra, and HawkEye 360; GPS; miniature CubeSats for education and research; and military/defense satellites.

Loading next visibility...
STARLINK-11464 details
Identifier
62473, 2024-254M
Orbit
LEO
Last TLE update16 hours ago
Origin
Flag of USSpaceX/Seattle (US)
ManufacturerSpaceX/Seattle
MissionOperational Commercial Communications
Bus & MotorSTARLINK V2M, Unknown motor
Mass730 kg wet, ~700 kg dry
Launch date (UTC)
2024-12-31 (1 month ago)
Launch vehicle
FALCON 9
Launch site
Air Force Eastern Test Range (AFETR)
Object type
Payload
Rocket body
Debris
Shape & HBRBox + 2 Pan, 29 m
Radar Cross Section36.964 m², Large (>1 m²)

Expand to show TLE details & history

TLE from 16 hours ago
0 STARLINK-11464
1 62473U 24254M   25035.55198965  .00007572  00000-0  46309-4 0  9999
2 62473  43.0033 103.7875 0002844 274.3604  85.6941 15.77871310  6775
Epoch: 2025-02-04T13:14Z
Definitive object data (Epoch: 2025-02-04T13:14:51.905Z)
Latitude-0.00005°
Longitude130.11553°
Altitude336.101 km
Speed7.709 km/s
True Right ascension06h 55m 08s
True Declination0° 00' 00"
Sunlit
Object was in full shadow at TLE epoch
Visualization TLE readout
Latitude39.17293°
Longitude-114.17494°
Altitude340.557 km
Speed7.709 km/s
Apparent Right ascension16h 42m 50s
Apparent Declination1° 00' 56"
Sunlit
Object is in daylight
Visualization observer readout
Local Sidereal Time06:56:47
Azimuth45.155° ENE
Elevation-38.918°
Doppler factor1
Orbital elements
Apogee altitude340.37 km
Perigee altitude336.55 km
Semi-major axis6,716.597 km
Eccentricity0.0002844
Inclination43.0033°
RAAN103.7875°
Arg. of periapsis274.3604°
True anomaly85.7266°
Mean anomaly85.6941°
Eccentric anomaly85.71035°
Mean motion3.94293 °/min
BSTAR0.000046309
Orbital period91.3 mins
Loading maneuver chart data...
Loading historical data...
Loading historical data...
Loading historical data...
Loading historical data...
Loading historical data...
Loading historical data...
Loading historical data...

STARLINK-11464 Visibility forecast

Observer location: undefined°, undefined

Span
Click to sort rows by Start time (UTC) header in descending order
Start Az.
Max El. time (UTC)
Max El. Az.
Max El.
End time (UTC)
End Az.
4 mins2025-02-05 07:41:51.955Z203.348° SW2025-02-05 07:43:51.955Z135.272° SSE25.259°2025-02-05 07:45:51.955Z89.361° E
|